Location: Berville
(49.1893°N, 2.0748°E)
Time: 18:11:37
(UTC+00:00)

Cosmos 1892 - Pass Details

Date: 08 February 2023
Orbit: 486 x 506 km, 82.5° (Epoch: 30 March)

Event Time Altitude Azimuth Distance (km) Brightness Sun altitude
Rises 18:00:05 0° 207° (SSW) 2,583 6.8 -10.3°
Reaches altitude 10° 18:02:17 10° 216° (SW) 1,709 6.0 -10.6°
Maximum altitude 18:05:49 38° 286° (WNW) 789 4.2 -11.2°
Drops below altitude 10° 18:09:23 10° 355° (N) 1,738 5.3 -11.8°
Sets 18:11:39 0° 4° (N) 2,633 6.2 -12.2°
